This demonstration page uses our WeatherBlox Daily Observations layout. Learn more.

Left ArrowRight Arrow

Hourly Observations for December 20, 2020

Temp ( °F °C ) Dew Point ( °F °C ) Humidity (%) Winds ( mph kmh ) Pressure ( in mb ) Visibility ( mi km ) Precip ( " mm )
12:52 am 00:52 Mostly Cloudy 24 -4.4 20 -6.7 84 84 SSE 9 15 29.95 1014 10 16 0.00 0.00
1:52 am 01:52 Mostly Cloudy 26 -3.3 21 -6.1 81 81 SSE 5 7 29.94 1014 10 16 0.00 0.00
2:52 am 02:52 Mostly Cloudy 25 -3.9 21 -6.1 85 85 SE 6 9 29.95 1014 10 16 0.00 0.00
3:52 am 03:52 Partly Cloudy 23 -5 20 -6.7 88 88 SSE 6 9 29.94 1014 10 16 0.00 0.00
4:52 am 04:52 Partly Cloudy 25 -3.9 20 -6.7 81 81 Calm 29.94 1014 10 16 0.00 0.00
5:52 am 05:52 Mostly Clear 24 -4.4 21 -6.1 88 88 Calm 29.96 1015 10 16 0.00 0.00
6:52 am 06:52 Mostly Clear 25 -3.9 21 -6.1 85 85 N 3 6 29.97 1015 10 16 0.00 0.00
7:52 am 07:52 Mostly Sunny 27 -2.8 23 -5 85 85 Calm 29.97 1015 10 16 0.00 0.00
8:52 am 08:52 Mostly Sunny 31 -0.6 24 -4.4 76 76 Calm 29.99 1016 10 16 0.00 0.00
9:52 am 09:52 Mostly Sunny 34 1.1 26 -3.3 73 73 Calm 30.00 1016 10 16 0.00 0.00
10:52 am 10:52 Mostly Sunny 37 2.8 28 -2.2 70 70 N 7 11 29.98 1015 10 16 0.00 0.00
11:52 am 11:52 Mostly Sunny 42 5.6 28 -2.2 58 58 NNE 6 9 29.94 1014 10 16 0.00 0.00
12:52 pm 12:52 Mostly Cloudy 43 6.1 28 -2.2 56 56 Calm 29.92 1013 10 16 0.00 0.00
1:52 pm 13:52 Mostly Cloudy 44 6.7 27 -2.8 51 51 W 7 11 29.90 1013 10 16 0.00 0.00
2:52 pm 14:52 Mostly Cloudy 44 6.7 27 -2.8 51 51 S 8 13 29.86 1011 10 16 0.00 0.00
3:52 pm 15:52 Mostly Cloudy 42 5.6 29 -1.7 60 60 S 8 13 29.84 1011 10 16 0.00 0.00
4:52 pm 16:52 Mostly Cloudy 41 5 29 -1.7 62 62 S 10 17 29.83 1010 10 16 0.00 0.00
5:52 pm 17:52 Mostly Cloudy 38 3.3 30 -1.1 73 73 SSE 9 15 29.83 1010 10 16 0.00 0.00
6:52 pm 18:52 Cloudy 37 2.8 30 -1.1 76 76 SSE 10 17 29.79 1009 10 16 0.00 0.00
7:52 pm 19:52 Partly Cloudy 38 3.3 30 -1.1 73 73 SE 13 20 29.76 1008 10 16 0.00 0.00
8:52 pm 20:52 Mostly Cloudy 39 3.9 29 -1.7 67 67 SSE 13 20 29.73 1007 10 16 0.00 0.00
9:52 pm 21:52 Mostly Clear 43 6.1 28 -2.2 56 56 SW 7 11 29.71 1006 10 16 0.00 0.00
10:52 pm 22:52 Partly Cloudy 44 6.7 28 -2.2 53 53 WSW 14 22 29.70 1006 10 16 0.00 0.00
11:52 pm 23:52 Mostly Cloudy 44 6.7 29 -1.7 55 55 W 13 20 29.71 1006 10 16 0.00 0.00

Powered by AerisWeather